Location: Newark
(45.9456°N, 15.4064°E)
Time: 01:50:34
(UTC+00:00)

Vanguard 3 - Pass Details

Date: 02 February 2020
Orbit: 508 x 3263 km, 33.3° (Epoch: 25 February)

Event Time Altitude Azimuth Distance (km) Brightness Sun altitude
Rises 16:56:42 0° 261° (W) 6,719 14.1 -9.4°
Reaches altitude 10° 17:01:01 10° 258° (WSW) 5,917 13.2 -10.1°
Maximum altitude 17:19:32 54° 189° (S) 3,678 10.5 -13.3°
Drops below altitude 10° 17:36:11 10° 118° (ESE) 5,376 10.8 -16.1°
Enters shadow 17:37:04 - 117° (ESE) 5,540 10.9 -16.3°
Sets 17:39:53 0° 114° (ESE) 6,095 - -16.8°
